Voltar ao catálogo

COSMOS 249 DEB

AtivoLEO
NORAD 18551·DEBRIS·🇷🇺 Russia

Lançado Oct 20, 1968 de Baikonur Cosmodrome

Loading…

Próximas Passagens (próximas 24 horas)

TLE

AtualizadoSource: Space-Track

Época: Sep 14, 2026, 10:20 UTC

1 18551U 68091DF  26257.43062594  .00000596  00000-0  31083-3 0  9997
2 18551  62.2960 260.7305 0690228 211.3328 227.6538 13.40123628658492

Acompanhe COSMOS 249 DEB em tempo real com AllMySat

Download on the App Store